CAPE
0 0 0 0 0 0 0 0 0 0 0 0 0 0 0 0 0 0 0 0 0 0 0 0 0 0 0 0 0 0 0 0 0 0 0 0 0 0 0 0 0 0 0
0 0 0 0 0 0 0 0 0 0 0 0 0 0 0 0 0 0 0 0 0 0 0 0 0 0 0 0 0 0 0 0 0 0 0 0 0 0 0 0 0 0 0
0 0 0 0 0 0 0 0 0 0 0 0 0 0 0 0 0 0 0 0 0 0 0 0 0 0 0 0 0 0 0 0 0 0 0 0 0 0 0 0 0 0 0
0 0 0 0 0 0 0 0 0 0 0 0 0 0 0 0 0 0 0 0 0 0 0 0 0 0 0 0 0 0 0 0 0 0 0 0 0 0 0 0 0 0 0
0 0 0 0 0 0 0 0 0 0 0 0 0 0 0 0 0 0 0 0 0 0 0 0 0 0 0 0 0 0 0 0 0 0 0 0 0 0 0 0 0 0 0
0 0 0 0 0 0 0 0 0 0 0 0 0 0 0 0 0 0 0 0 0 0 0 0 0 0 0 0 0 0 0 0 0 0 0 0 0 0 0 0 0 0 0
0 0 0 0 0 0 0 0 0 0 0 0 0 0 0 0 0 0 0 0 0 0 0 0 0 0 0 0 0 0 0 0 0 0 0 0 0 0 0 0 0 0 0
0 0 0 0 0 0 0 0 0 0 0 0 0 0 0 0 0 0 0 0 0 0 0 0 0 0 0 0 0 0 0 0 0 0 0 0 0 0 0 0 0 9 0
0 0 0 0 0 0 0 0 0 0 0 0 0 0 0 0 0 0 0 0 0 0 0 0 0 0 0 0 0 0 0 0 0 0 0 0 0 0 0 4 0 1 0
0 0 0 0 0 0 0 0 0 0 0 0 0 0 0 0 0 0 0 0 0 0 0 0 0 0 0 0 0 0 0 0 0 0 0 0 0 0 0 0 0 1 1
0 0 0 0 0 0 0 0 0 0 0 0 0 0 0 0 0 0 0 0 0 0 0 0 0 0 0 0 0 0 0 0 0 0 0 0 0 0 0 0 0 0 1
0 0 0 0 0 0 0 0 0 0 0 0 0 0 0 0 0 0 0 0 0 0 0 0 0 0 0 0 0 0 0 0 0 0 0 0 0 0 0 0 0 0 0
0 0 0 0 0 0 0 0 0 0 0 0 0 0 0 0 0 0 0 0 0 0 0 0 0 0 0 0 0 0 0 0 0 0 0 0 0 0 0 0 0 0 0
0 0 0 0 0 0 0 0 0 0 0 0 0 0 0 0 0 0 0 0 0 0 0 0 0 0 0 0 0 0 0 0 0 0 0 0 0 0 0 0 0 0 0
0 0 0 0 0 0 0 0 0 0 0 0 0 0 0 0 0 0 0 0 0 0 0 0 0 0 0 0 0 0 0 0 0 0 0 0 0 0 0 0 0 0 0
0 0 0 0 0 0 0 0 0 0 0 0 0 0 0 0 0 0 0 0 0 1 0 0 0 0 0 0 0 0 0 0 0 0 0 0 0 0 0 0 0 0 0
0 0 0 0 0 0 0 0 0 0 0 0 0 0 0 0 0 0 0 0 0 0 0 0 0 0 0 0 0 0 0 0 0 0 0 0 0 0 0 0 0 0 0
0 0 0 0 0 0 0 0 0 0 0 0 0 0 0 0 0 0 0 0 0 0 0 0 0 0 0 0 0 0 0 0 0 0 0 0 0 0 0 0 0 0 0
0 1 2 2 1 1 0 0 0 0 0 0 0 0 0 0 0 0 0 0 0 0 0 0 0 0 0 0 0 0 0 0 0 0 0 0 0 0 0 0 0 0 0
1 0 0 0 0 0 0 6 9 17 14 0 0 0 0 0 0 0 0 0 1 0 0 0 0 0 0 0 0 0 0 0 0 0 0 0 0 0 0 0 0 0 0
0 0 0 0 0 0 0 0 2 4 13 12 10 0 0 0 0 0 0 0 0 0 0 0 0 0 0 0 0 0 0 0 0 0 0 0 0 0 0 0 0 0 0
0 0 3 5 5 5 5 4 3 0 0 0 1 0 0 0 0 0 0 0 0 0 0 0 0 0 0 0 0 0 0 0 0 0 0 0 0 0 0 0 0 0 0
0 0 0 3 4 2 0 0 0 5 5 2 0 0 0 0 0 0 0 1 2 3 0 0 0 0 0 0 0 0 0 0 0 0 0 0 0 0 0 0 0 0 0
0 0 0 0 0 0 0 0 1 0 1 5 7 3 0 0 0 0 0 0 0 0 0 0 0 0 0 0 0 0 0 0 0 0 0 0 0 0 0 0 0 0 0
0 0 0 0 0 0 0 0 0 0 0 0 0 0 0 0 0 0 0 0 0 0 0 0 0 0 0 0 0 0 0 0 0 0 0 0 0 0 0 0 0 0 0
0 0 0 0 0 0 0 0 0 0 0 0 0 0 0 0 0 0 0 0 0 0 0 0 0 0 0 0 0 0 0 0 0 0 0 0 0 0 0 0 0 0 0
CIN
-0 -0 -0 -0 -0 -0 -0 -0 -0 -0 -0 -0 -0 -0 -0 -0 -0 -0 -0 -0 -0 -0 -0 -0 -0 -0 -0 -0 -0 -0 -0 -0 -0 -0 -0 -0 -0 -0 -0 -0 -0 -0 -0
-0 -0 -0 -0 -0 -0 -0 -0 -0 -0 -0 -0 -0 -0 -0 -0 -0 -0 -0 -0 -0 -0 -0 -0 -0 -0 -0 -0 -0 -0 -0 -0 -0 -0 -0 -0 -0 -0 -0 -0 -0 -0 -0
-0 -0 -0 -0 -0 -0 -0 -0 -0 -0 -0 -0 -0 -0 -0 -0 -0 -0 -0 -0 -0 -0 -0 -0 -0 -0 -0 -0 -0 -0 -0 -0 -0 -0 -0 -0 -0 -0 -0 -0 -0 -0 -0
-0 -0 -0 -0 -0 -0 -0 -0 -0 -0 -0 -0 -0 -0 -0 -0 -0 -0 -0 -0 -0 -0 -0 -0 -0 -0 -0 -0 -0 -0 -0 -0 -0 -0 -0 -0 -0 -0 -0 -0 -0 -0 -0
-0 -0 -0 -0 -0 -0 -0 -0 -0 -0 -0 -0 -0 -0 -0 -0 -0 -0 -0 -0 -0 -0 -0 -0 -0 -0 -0 -0 -0 -0 -0 -0 -0 -0 -0 -0 -0 -0 -0 -0 -0 -0 -0
-0 -0 -0 -0 -0 -0 -0 -0 -0 -0 -0 -0 -0 -0 -0 -0 -0 -0 -0 -0 -0 -0 -0 -0 -0 -0 -0 -0 -0 -0 -0 -0 -0 -0 -0 -0 -0 -0 -0 -0 -0 -0 -0
-0 -0 -0 -0 -0 -0 -0 -0 -0 -0 -0 -0 -0 -0 -0 -0 -0 -0 -0 -0 -0 -0 -0 -0 -0 -0 -0 -0 -0 -0 -0 -0 -0 -0 -0 -0 -0 -0 -0 -0 -0 -0 -0
-0 -0 -0 -0 -0 -0 -0 -0 -0 -0 -0 -0 -0 -0 -0 -0 -0 -0 -0 -0 -0 -0 -0 -0 -0 -0 -0 -0 -0 -0 -0 -0 -0 -0 -0 -0 -0 -0 -0 -3 -6 -0 -0
-0 -0 -0 -0 -0 -0 -0 -0 -0 -0 -0 -0 -0 -0 -0 -0 -0 -0 -0 -0 -0 -0 -0 -0 -0 -0 -0 -0 -0 -0 -0 -0 -0 -0 -0 -0 -0 -0 -0 -2 -0 -0 -0
-0 -0 -0 -0 -0 -0 -0 -0 -0 -0 -0 -0 -0 -0 -0 -0 -0 -0 -0 -0 -0 -0 -0 -0 -0 -0 -0 -0 -0 -0 -0 -0 -0 -0 -0 -0 -0 -0 -0 -0 -0 -0 -0
-0 -0 -0 -0 -0 -0 -0 -0 -0 -0 -0 -0 -0 -0 -0 -0 -0 -0 -0 -0 -0 -0 -0 -0 -0 -0 -0 -0 -0 -0 -0 -0 -0 -0 -0 -0 -0 -0 -0 -0 -0 -0 -0
-0 -0 -0 -0 -0 -0 -0 -0 -0 -0 -0 -0 -0 -0 -0 -0 -0 -0 -0 -0 -0 -0 -0 -0 -0 -0 -0 -0 -0 -0 -0 -0 -0 -0 -0 -0 -0 -0 -0 -0 -0 -0 -0
-0 -0 -0 -0 -0 -0 -0 -0 -0 -0 -0 -0 -0 -0 -0 -0 -0 -0 -0 -0 -0 -0 -0 -0 -0 -0 -0 -0 -0 -0 -0 -0 -0 -0 -0 -0 -0 -0 -0 -0 -0 -0 -0
-0 -0 -0 -0 -0 -0 -0 -0 -0 -0 -0 -0 -0 -0 -0 -0 -0 -0 -0 -0 -0 -0 -0 -0 -0 -0 -0 -0 -0 -0 -0 -0 -0 -0 -0 -0 -0 -0 -0 -0 -0 -0 -0
-0 -0 -0 -0 -0 -0 -0 -0 -0 -0 -0 -0 -0 -0 -0 -0 -0 -0 -0 -0 -0 -0 -0 -0 -0 -0 -0 -0 -0 -0 -0 -0 -0 -0 -0 -0 -0 -0 -0 -0 -0 -0 -0
-0 -0 -0 -0 -0 -0 -0 -0 -0 -0 -0 -0 -0 -0 -0 -0 -0 -0 -0 -0 -0 -0 -0 -0 -0 -0 -0 -0 -0 -0 -0 -0 -0 -0 -0 -0 -0 -0 -0 -0 -0 -0 -0
-0 -0 -0 -0 -0 -0 -0 -0 -0 -0 -0 -0 -0 -0 -0 -0 -0 -0 -0 -0 -0 -0 -0 -0 -0 -0 -0 -0 -0 -0 -0 -0 -0 -0 -0 -0 -0 -0 -0 -0 -0 -0 -0
-0 -0 -0 -0 -0 -0 -0 -0 -0 -0 -0 -0 -0 -0 -0 -0 -0 -0 -0 -0 -0 -0 -0 -0 -0 -0 -0 -0 -0 -0 -0 -0 -0 -0 -0 -0 -0 -0 -0 -0 -0 -0 -0
-0 -0 -0 -0 -0 -0 -0 -0 -0 -0 -0 -0 -0 -0 -0 -0 -0 -0 -0 -0 -0 -0 -0 -0 -0 -0 -0 -0 -0 -0 -0 -0 -0 -0 -0 -0 -0 -0 -0 -0 -0 -0 -0
-0 -0 -0 -0 -0 -0 -0 -0 -0 -1 -0 -0 -0 -0 -0 -0 -0 -0 -0 -0 -0 -0 -0 -0 -0 -0 -0 -0 -0 -0 -0 -0 -0 -0 -0 -0 -0 -0 -0 -0 -0 -0 -0
-0 -0 -0 -0 -0 -1 -1 -1 -2 -1 -0 -0 -1 -0 -0 -0 -0 -0 -0 -0 -0 -0 -0 -0 -0 -0 -0 -0 -0 -0 -0 -0 -0 -0 -0 -0 -0 -0 -0 -0 -0 -0 -0
-0 -0 -0 -0 -0 -1 -0 -1 -1 -0 -1 -0 -1 -0 -0 -0 -0 -0 -0 -0 -0 -0 -0 -0 -0 -0 -0 -0 -0 -0 -0 -0 -0 -0 -0 -0 -0 -0 -0 -0 -0 -0 -0
-0 -0 -0 -0 -0 -0 -0 -0 -0 -0 -0 -0 -0 -0 -0 -0 -0 -0 -0 -0 -0 -0 -0 -0 -0 -0 -0 -0 -0 -0 -0 -0 -0 -0 -0 -0 -0 -0 -0 -0 -0 -0 -0
-0 -0 -0 -0 -0 -0 -1 -0 -0 -0 -0 -0 -0 -0 -0 -0 -0 -0 -0 -0 -0 -0 -0 -0 -0 -0 -0 -0 -0 -0 -0 -0 -0 -0 -0 -0 -0 -0 -0 -0 -0 -0 -0
-0 -0 -0 -0 -0 -0 -0 -0 -0 -0 -0 -0 -0 -0 -0 -0 -0 -0 -0 -0 -0 -0 -0 -0 -0 -0 -0 -0 -0 -0 -0 -0 -0 -0 -0 -0 -0 -0 -0 -0 -0 -0 -0
-0 -0 -0 -0 -0 -0 -0 -0 -0 -0 -0 -0 -0 -0 -0 -0 -0 -0 -0 -0 -0 -0 -0 -0 -0 -0 -0 -0 -0 -0 -0 -0 -0 -0 -0 -0 -0 -0 -0 -0 -0 -0 -0
Wind_Speed
12 9 11 9 9 8 7 7 6 6 6 5 7 6 6 4 3 5 5 5 4 3 2 4 4 3 3 2 2 2 2 2 3 3 2 2 3 6 9 7 8 8 6
13 12 11 10 8 7 6 6 6 5 6 7 5 6 5 3 3 6 6 5 4 3 3 2 4 2 3 2 2 3 2 2 3 5 3 3 4 7 7 8 8 8 5
12 11 10 10 9 7 7 7 4 4 4 4 5 5 4 6 5 5 6 6 6 5 4 3 5 4 4 3 3 3 2 2 2 2 5 3 3 4 7 7 6 6 7
13 14 15 13 11 6 4 5 5 4 6 6 6 6 6 5 5 6 6 6 5 4 3 2 3 4 5 5 3 2 2 2 2 3 5 6 3 6 4 5 7 5 9
10 6 4 3 6 7 10 4 6 5 4 3 4 4 5 5 5 7 6 6 6 5 3 2 3 5 8 6 3 3 2 1 3 4 6 5 6 6 6 5 6 8 10
9 8 7 7 8 8 6 6 3 5 5 3 4 5 6 4 8 11 8 6 5 4 3 3 4 4 4 8 7 6 4 2 4 2 3 6 6 5 4 6 7 7 7
10 8 8 9 8 8 6 7 6 4 3 3 5 5 7 6 9 12 12 5 5 5 4 4 4 3 5 5 4 1 3 6 4 3 5 4 7 7 8 9 9 7 8
8 7 7 10 10 9 9 5 2 3 3 4 6 6 6 5 11 12 11 5 4 5 5 5 5 5 5 5 4 3 4 4 4 4 5 5 7 7 8 9 11 9 6
11 11 10 12 12 6 4 5 5 4 4 3 4 6 6 5 9 10 9 5 5 6 5 5 5 5 8 8 4 4 4 5 5 8 10 14 16 16 13 6 6 6 8
11 13 11 8 4 5 5 4 4 4 5 4 4 5 6 5 9 12 9 3 4 4 4 5 6 6 10 9 5 4 4 5 4 5 5 8 10 9 13 5 5 6 7
9 6 6 3 2 3 4 3 3 5 4 5 5 6 6 6 7 15 16 6 6 4 4 4 4 9 11 10 9 5 6 4 6 5 4 5 5 6 5 6 6 5 7
4 4 2 1 2 2 5 4 5 4 3 5 4 5 4 6 10 12 16 16 10 5 6 5 4 12 13 12 8 9 11 6 3 3 3 5 5 5 5 6 8 7 7
3 2 1 3 4 4 4 5 3 4 3 5 4 4 4 4 4 14 16 18 17 8 6 8 11 12 14 9 12 12 7 2 3 1 5 3 3 4 6 6 7 8 9
1 3 4 4 5 4 3 3 3 3 3 3 4 5 5 4 4 4 6 8 16 10 7 7 6 5 5 6 4 7 4 4 4 5 3 3 2 3 3 3 4 6 7
3 4 5 4 5 5 5 5 4 5 6 5 5 5 4 6 6 10 9 6 7 10 5 3 3 3 5 5 4 5 4 3 3 2 2 2 2 2 2 3 3 5 4
4 4 4 3 4 5 5 7 9 12 13 15 15 8 5 13 14 15 16 16 18 14 4 5 7 6 7 6 6 4 4 4 3 4 3 2 2 2 2 3 3 3 5
6 6 4 5 5 6 6 6 9 9 15 15 15 16 14 14 14 15 18 17 19 13 6 6 7 6 7 7 6 5 4 5 4 4 3 4 3 2 2 2 3 3 4
6 7 6 6 7 8 8 9 9 10 11 9 10 15 14 14 15 15 16 14 8 12 7 7 8 7 7 7 6 5 5 3 4 4 4 3 3 3 1 2 3 2 4
6 6 7 6 6 8 8 9 9 10 11 12 9 6 9 15 16 14 13 7 8 8 9 8 8 7 7 7 6 5 5 4 5 4 4 4 4 3 2 3 2 4 4
8 10 9 8 9 10 10 11 11 10 12 11 10 9 5 2 3 6 5 7 7 8 8 8 8 8 7 7 6 6 5 5 6 5 4 4 3 3 3 3 2 2 3
7 8 9 8 8 10 10 11 11 11 12 12 11 8 9 7 7 5 4 6 8 8 9 9 8 8 7 7 7 6 6 6 7 7 5 4 4 3 4 3 2 2 2
8 8 8 9 9 9 12 12 12 12 12 12 12 9 11 4 5 5 6 6 7 8 8 9 7 8 8 8 8 7 8 8 7 7 6 5 5 4 4 3 2 1 1
8 8 9 9 9 13 10 10 12 15 13 14 13 6 2 3 5 4 1 4 7 6 5 6 7 7 7 7 7 8 8 9 9 8 8 7 6 5 4 4 3 2 1
8 7 9 9 8 9 10 11 11 14 17 17 13 10 8 7 6 6 5 4 5 6 6 7 7 6 7 7 7 7 7 7 7 9 11 8 7 6 4 3 4 4 3
6 6 7 8 9 9 10 10 10 11 11 11 11 10 10 10 9 9 7 5 5 6 7 7 5 7 8 11 9 10 11 13 10 10 8 9 10 10 7 4 4 3 2
6 6 6 7 8 9 9 9 10 10 10 10 9 9 9 9 9 9 8 8 8 7 8 7 9 11 12 10 10 12 12 13 13 15 10 9 9 8 6 7 7 3 3
Wind_Direction
159 155 149 148 144 150 153 146 151 141 165 180 200 189 190 189 164 162 179 169 176 201 218 218 251 233 221 242 126 121 131 150 250 289 271 283 290 309 310 304 300 296 287
166 159 153 148 160 157 149 148 153 189 209 214 188 184 192 196 202 191 191 177 198 207 192 212 244 239 207 184 148 166 172 229 205 264 261 295 294 304 292 301 300 306 311
153 156 152 157 156 160 153 155 173 203 190 183 163 186 206 222 216 191 188 192 196 193 208 236 278 272 239 184 201 211 195 210 226 262 289 268 270 291 301 301 291 296 295
165 166 172 165 163 155 140 131 110 141 148 163 180 201 224 239 216 187 179 186 184 172 176 249 269 223 203 217 226 214 226 262 266 271 282 288 276 291 275 295 303 298 298
169 152 114 112 123 128 113 95 109 151 144 192 224 243 253 232 195 184 181 177 180 187 220 264 211 226 232 206 163 191 193 261 276 277 288 294 303 306 300 296 291 299 298
131 116 112 100 70 63 81 81 94 24 29 21 345 306 273 241 206 187 170 182 186 187 240 270 257 259 164 156 148 150 167 241 258 233 283 290 293 318 294 292 292 301 307
126 122 129 126 114 113 122 71 52 39 28 346 312 293 280 253 197 185 179 176 182 200 214 242 250 189 176 177 182 203 269 293 275 251 279 272 300 296 291 293 285 276 277
106 103 100 106 91 70 63 75 77 231 267 275 279 288 285 241 202 195 174 173 190 207 227 233 228 227 210 195 195 252 277 291 279 280 275 280 275 280 275 285 286 287 275
89 81 76 82 85 100 137 224 240 266 286 268 277 303 292 255 203 196 178 191 205 220 217 224 238 217 205 199 212 263 275 277 293 293 307 307 311 312 312 314 310 314 309
93 97 96 97 115 196 224 271 274 239 250 282 298 277 273 253 215 211 197 170 223 225 233 243 237 199 196 207 209 233 268 275 276 290 294 304 306 298 310 289 290 300 301
100 114 113 148 230 267 272 257 268 276 294 283 274 274 255 227 229 217 216 193 215 209 218 226 221 212 211 226 246 204 222 251 274 268 276 288 289 292 296 297 286 271 290
131 101 125 201 276 278 270 281 292 295 285 282 273 273 265 255 232 230 224 219 209 197 217 222 215 224 224 239 260 248 259 255 232 262 275 285 283 284 297 296 295 287 271
78 98 184 278 275 282 292 285 295 295 262 270 256 255 262 262 240 232 229 229 223 209 215 220 228 230 236 250 261 270 270 229 239 246 267 257 244 266 300 307 307 303 293
56 304 293 297 302 294 281 267 258 256 267 253 257 258 261 255 253 236 229 236 236 218 221 229 215 210 228 243 264 268 238 222 219 230 228 235 270 290 292 292 298 312 311
305 301 302 292 280 283 268 252 252 247 213 226 234 232 238 264 244 241 214 209 214 214 191 178 211 211 247 251 252 243 241 232 212 198 194 237 261 268 276 295 286 313 310
299 283 262 265 274 270 270 285 257 246 242 238 242 221 244 238 258 260 233 231 226 210 186 199 218 222 226 235 244 248 235 233 226 189 194 213 232 254 269 302 305 297 310
283 286 279 273 268 267 268 261 274 269 248 254 252 259 257 259 262 260 251 235 233 205 209 208 218 208 221 229 234 223 231 229 193 189 191 209 215 250 286 293 300 313 312
309 283 286 288 285 283 276 275 275 274 275 268 252 243 255 261 267 270 259 240 237 218 205 212 217 213 218 226 226 221 232 213 196 191 193 199 197 191 274 281 299 283 299
353 342 331 316 306 295 288 282 274 271 269 270 271 252 239 255 263 264 275 245 239 219 220 217 217 216 215 218 219 213 208 199 201 183 206 199 201 166 235 251 285 309 297
353 346 338 326 317 313 309 303 299 291 285 272 259 251 254 166 251 251 239 256 243 231 222 217 217 217 215 214 213 217 209 198 205 207 209 196 204 166 198 227 258 274 299
330 326 323 320 321 317 307 300 295 298 296 292 269 249 232 220 250 223 230 235 243 237 227 221 216 216 214 213 217 211 212 207 208 205 199 200 175 177 202 197 229 263 265
331 326 330 330 325 329 333 319 299 291 287 289 281 252 232 211 234 239 242 247 242 242 232 223 210 213 212 212 212 212 214 214 207 203 198 190 186 184 167 170 188 226 268
348 344 340 345 339 334 329 331 339 328 294 287 283 246 194 230 243 234 257 12 353 323 246 223 219 216 214 216 214 210 209 211 212 196 195 187 186 175 166 167 173 201 192
345 353 350 343 339 336 341 339 342 350 1 5 10 13 38 45 37 37 25 3 3 3 359 359 346 293 228 219 221 218 218 218 205 197 190 181 186 173 151 153 163 176 182
345 7 354 346 345 345 339 341 351 352 358 1 3 5 6 17 18 11 2 354 359 353 342 335 324 326 315 329 271 219 216 214 206 197 189 179 177 173 170 157 152 156 156
356 5 357 347 348 346 342 347 349 348 351 354 354 356 358 360 6 358 354 350 339 334 330 323 314 309 304 297 285 292 237 216 207 199 184 177 166 165 165 159 160 148 157